Wind_Speed
4 6 8 4 11 12 9 4 5 2 4 7 4 4 5 1 8 3 2 1 3 5 5 3 3 5 5 2 3 3 5 2 2 4 3 4 5 5 5 4 6 3 5 8
3 5 8 5 11 13 5 2 4 2 4 5 6 4 6 3 8 4 5 3 1 3 5 3 6 6 3 3 3 6 5 0 3 5 6 5 4 2 4 5 3 11 8 7
2 4 7 6 7 10 4 3 3 4 5 3 10 10 9 7 2 4 3 6 6 8 6 4 7 7 4 2 4 3 2 2 3 5 9 8 8 10 10 10 8 12 12 17
2 4 6 6 4 6 3 2 2 1 7 6 9 10 10 10 6 3 6 4 4 8 4 7 5 7 6 4 4 2 3 3 4 7 11 12 14 13 14 16 16 15 18 19
2 3 5 6 3 5 2 2 3 2 2 5 9 4 9 12 5 8 8 7 8 6 8 2 7 5 3 3 4 2 1 1 4 4 6 12 17 16 16 17 13 12 14 15
3 3 5 5 2 2 1 2 1 2 2 7 8 7 9 9 9 2 2 10 8 9 8 9 9 7 5 3 2 4 1 1 2 4 9 14 6 3 7 7 7 11 11 12
4 2 4 6 3 3 1 2 2 3 4 7 7 7 8 11 6 8 9 6 8 5 8 8 5 6 5 2 3 3 3 1 2 3 5 2 7 16 14 12 9 10 12 12
5 3 4 5 5 2 4 3 1 3 2 5 5 9 12 9 10 12 11 6 5 9 2 2 2 1 3 1 2 1 4 4 2 2 4 14 12 3 6 9 15 11 5 8
6 4 3 5 5 6 6 5 3 3 6 4 8 9 12 10 7 6 5 5 4 2 2 2 2 3 2 5 6 4 3 1 4 3 4 4 6 9 4 7 11 5 10 18
7 5 4 4 5 5 4 4 4 0 3 3 4 5 8 3 7 4 5 6 4 2 2 2 2 3 2 3 2 4 3 2 6 7 6 9 9 4 3 5 3 15 15 10
8 6 4 3 3 3 6 3 5 3 3 5 1 2 5 3 6 5 8 5 2 2 2 4 4 1 4 2 4 5 7 6 4 3 3 6 2 5 5 7 12 11 11 8
10 7 5 3 3 3 5 3 6 8 3 4 3 4 4 5 8 1 9 1 5 5 3 3 2 2 0 1 3 5 4 7 4 8 5 9 8 7 3 5 4 5 2 3
10 8 6 4 3 3 4 4 2 4 3 3 4 3 3 4 4 3 3 1 2 4 4 4 3 3 5 4 5 8 6 10 5 7 7 12 11 7 9 8 6 3 1 2
11 9 6 5 4 4 5 4 2 3 5 3 3 1 3 3 1 1 3 7 7 7 3 2 3 3 7 4 6 7 8 10 10 13 16 12 10 9 6 5 3 1 3 6
11 10 8 6 5 6 6 6 4 4 3 3 2 3 1 2 1 4 3 8 5 2 2 2 3 3 1 2 3 8 8 13 9 7 3 1 2 5 4 4 1 3 6 9
13 11 9 7 6 6 3 2 1 2 3 3 2 3 1 0 2 5 6 7 2 2 3 3 3 3 3 4 4 6 6 6 6 2 4 5 8 4 5 3 3 7 11 14
15 13 10 8 7 2 2 1 2 5 3 2 2 2 2 0 3 2 3 4 0 3 2 3 3 5 3 2 6 9 2 0 3 9 10 5 5 3 6 5 8 10 14 16
17 14 12 11 8 4 2 3 8 6 5 3 3 2 2 3 2 2 0 2 1 2 2 1 3 1 1 4 6 5 5 5 6 4 3 2 6 5 5 6 10 11 12 16
20 16 13 8 5 5 3 7 7 1 1 3 3 5 4 4 2 2 1 1 2 2 1 2 2 3 5 6 6 7 9 6 6 5 5 5 0 3 6 9 11 12 12 16
24 18 6 1 5 9 12 3 2 3 2 2 3 3 4 4 2 2 3 0 1 2 2 2 2 3 2 4 4 6 9 8 10 7 3 1 4 6 8 10 13 14 15 17
10 4 2 5 15 4 2 2 3 1 1 2 2 5 4 1 3 3 1 2 2 3 2 3 2 3 6 10 10 10 12 10 5 2 2 5 6 8 10 10 12 14 16 17
8 15 11 4 2 2 3 3 2 4 4 3 3 2 2 2 1 2 1 3 2 3 3 2 3 2 9 11 11 10 9 7 3 1 5 8 10 12 12 13 15 15 17 20
8 7 3 1 1 3 6 8 3 4 4 4 3 2 2 2 2 2 3 4 3 1 2 3 0 6 9 9 8 8 8 4 1 6 10 12 12 12 11 14 16 17 16 16
3 2 3 2 3 0 1 3 4 3 3 6 4 2 2 1 2 1 3 2 2 3 3 4 2 7 9 8 7 5 6 6 2 10 13 11 12 12 14 19 19 19 17 20
2 1 2 2 2 3 2 2 2 2 3 3 4 3 1 2 2 0 3 4 3 4 2 2 3 7 7 6 4 4 4 4 9 13 13 12 15 15 15 15 16 14 21 22
2 1 2 1 2 2 3 4 3 3 2 3 2 2 1 2 1 2 3 1 3 2 2 2 6 7 5 4 2 5 9 12 14 14 14 14 15 17 17 16 20 22 18 18
2 2 2 3 3 3 2 1 2 2 1 2 2 1 3 2 1 2 2 2 2 2 3 3 5 6 5 5 7 8 11 13 14 14 15 15 16 16 15 15 17 17 16 19
Wind_Direction
44 49 48 107 163 165 170 192 190 127 172 196 200 195 155 81 150 174 125 82 111 157 147 138 114 136 63 87 351 29 35 343 274 5 75 353 322 329 302 288 296 235 291 282
55 43 49 81 162 168 182 211 105 120 215 171 196 144 136 155 174 155 167 141 166 177 147 125 122 118 92 71 17 20 16 144 295 184 162 171 275 284 297 284 327 265 259 271
66 36 44 67 149 191 233 193 119 145 216 311 189 183 172 144 62 114 104 116 139 138 143 116 151 130 138 103 55 20 309 317 301 313 325 322 295 283 272 265 256 267 278 288
80 37 34 45 112 170 216 272 123 72 180 210 200 187 179 163 152 146 180 156 195 156 141 143 146 133 142 170 135 178 309 264 302 294 303 305 301 295 283 272 261 259 279 285
112 40 29 28 76 137 225 190 162 153 113 158 176 151 199 183 138 164 167 185 155 162 156 204 171 161 196 185 163 199 133 287 337 272 298 313 309 300 284 267 270 287 298 292
126 50 28 24 51 139 164 102 51 215 190 181 176 189 175 172 142 47 243 146 142 99 79 67 52 46 48 62 183 200 280 289 332 275 343 319 286 242 338 308 251 310 283 296
137 69 38 29 52 124 57 123 143 113 154 194 188 180 174 159 170 138 117 136 119 93 116 102 75 75 51 250 97 301 140 159 68 286 305 274 15 315 291 286 293 301 303 319
147 108 54 42 51 106 111 119 209 126 122 162 162 160 140 124 125 134 113 66 83 149 161 87 28 116 58 121 44 138 249 156 149 263 266 294 293 71 358 332 303 307 336 351
159 125 78 56 70 87 95 84 83 90 123 210 154 152 166 152 136 139 101 99 117 164 92 105 169 212 268 152 143 55 76 140 230 185 259 274 332 1 25 307 274 59 344 331
160 141 110 83 73 97 91 75 86 298 101 142 187 156 177 171 182 119 138 152 144 244 107 115 166 224 334 215 189 191 117 198 220 230 253 271 300 23 306 281 350 328 335 16
163 150 123 94 88 86 68 73 49 12 72 124 167 124 147 163 182 157 127 141 142 119 129 168 205 209 202 223 261 175 187 179 207 216 248 273 108 251 312 302 322 6 13 26
171 161 141 110 98 110 99 107 72 66 58 82 96 90 45 24 12 156 177 188 149 174 129 186 168 186 17 222 243 177 251 209 248 196 236 303 303 347 6 342 12 14 65 274
175 166 153 133 107 117 105 122 80 80 86 118 178 149 71 67 48 18 180 218 153 182 5 139 174 193 173 174 228 267 277 277 234 273 267 297 308 25 58 36 79 102 300 288
179 175 162 141 113 106 104 127 64 61 77 118 140 86 135 341 356 103 33 105 94 97 131 115 143 185 203 213 258 274 270 283 269 263 280 317 53 71 71 78 97 186 249 297
184 183 176 154 124 106 91 92 63 58 322 146 127 136 83 24 231 196 163 163 153 134 109 122 196 231 211 221 290 259 252 270 266 264 73 292 93 85 120 154 255 339 310 315
190 187 186 170 156 132 150 165 85 52 50 107 131 72 100 12 177 174 191 204 104 192 152 195 253 163 221 193 225 257 285 301 18 303 107 103 121 140 187 230 308 303 320 321
193 192 192 185 180 153 262 36 90 141 85 85 84 216 83 45 147 115 170 27 66 218 217 203 216 204 222 210 245 262 259 214 90 124 107 103 188 210 216 256 299 320 314 314
191 194 195 195 192 188 176 45 146 115 103 71 138 184 205 204 140 169 109 144 259 210 247 91 222 172 140 247 247 222 152 127 114 114 183 182 161 197 247 317 316 316 318 323
195 197 193 183 190 153 178 168 157 146 48 168 150 169 194 162 121 91 112 213 181 76 238 220 194 177 216 235 188 169 162 152 149 170 157 130 198 322 324 323 320 314 316 321
192 180 167 217 183 145 137 106 51 15 356 55 181 157 162 197 159 153 136 210 245 226 207 150 215 248 276 204 164 159 157 169 165 192 178 310 321 322 315 311 313 319 319 318
173 117 96 120 133 122 49 152 140 168 259 192 182 195 141 206 158 160 268 165 154 236 159 239 225 244 194 161 149 147 151 161 163 90 19 323 316 306 304 306 318 314 314 313
125 111 112 119 85 66 144 176 152 204 210 155 151 133 85 111 107 106 178 159 161 232 149 226 246 147 136 157 156 152 155 162 157 308 311 306 302 308 311 309 308 308 306 307
66 55 65 94 19 174 197 186 187 187 157 159 166 113 100 102 72 110 169 185 194 204 182 230 327 121 160 164 158 168 181 145 358 312 313 310 306 305 298 295 294 297 297 297
66 95 112 302 173 350 351 352 72 61 107 115 106 93 91 145 115 139 178 86 202 210 230 222 144 164 162 161 167 178 197 156 295 312 301 299 287 284 289 295 299 299 290 299
69 350 72 69 55 36 25 18 86 40 104 115 117 89 102 83 120 59 122 170 224 223 239 78 124 153 161 143 173 226 261 271 277 289 293 286 286 284 287 289 291 286 288 292
57 77 122 72 96 60 31 36 55 23 50 53 39 82 137 91 66 184 205 224 231 103 87 142 134 139 152 182 200 267 283 290 291 291 289 288 283 280 288 292 295 299 291 285
154 91 40 72 48 68 65 27 76 62 42 63 71 108 54 107 203 240 224 253 31 112 144 121 133 168 192 237 278 282 281 281 283 284 285 288 292 291 290 287 295 296 297 292
Height
785 784 782 781 783 785 787 785 782 790 791 790 784 791 791 798 795 794 795 793 795 798 802 808 811 815 815 820 818 820 824 822 829 819 817 817 818 819 820 834 834 828 838 828
785 784 783 782 782 784 784 776 782 791 791 796 795 794 797 792 796 795 796 802 798 800 805 818 813 817 824 821 821 826 824 826 831 820 823 822 824 818 823 829 841 844 845 829
785 784 783 782 782 783 784 776 791 788 787 783 784 792 795 801 798 801 797 801 799 804 810 806 818 822 826 826 825 840 834 826 830 836 826 820 827 822 819 825 840 835 827 813
785 784 783 782 782 782 784 776 783 783 792 789 784 785 789 795 802 798 797 803 801 806 817 814 818 818 826 828 839 831 829 838 828 826 822 820 820 822 820 822 818 830 820 813
785 785 784 783 782 782 782 778 784 786 786 784 786 798 791 792 798 798 802 801 801 802 815 812 818 816 819 822 829 830 831 840 844 843 828 823 823 819 815 811 814 814 814 815
785 785 785 784 783 783 781 786 786 781 803 788 790 792 791 791 796 804 794 798 804 814 814 812 815 819 820 821 827 833 837 843 848 852 843 842 839 823 814 812 812 815 823 813
786 786 785 784 783 783 784 785 784 794 799 792 787 790 791 794 796 803 801 802 810 820 819 820 822 825 828 828 832 833 848 849 863 862 861 851 813 807 808 812 811 809 808 807
786 787 786 785 784 784 785 786 786 791 807 789 793 792 792 801 801 805 810 818 818 819 819 830 846 843 857 846 838 839 837 852 865 864 848 832 819 813 819 822 822 810 813 814
787 787 787 786 785 785 786 787 788 789 803 802 790 795 797 804 808 815 822 825 824 823 829 841 855 840 829 830 841 847 847 849 854 865 864 849 817 812 819 819 824 815 819 821
787 788 789 788 787 787 789 789 788 788 796 798 795 798 800 797 802 811 818 824 827 824 845 849 852 839 827 831 850 863 864 863 860 857 858 837 817 820 820 835 833 825 825 834
787 788 789 789 789 789 790 792 790 791 796 801 801 801 802 803 801 816 816 823 827 835 848 851 846 849 832 833 823 839 848 858 862 856 857 849 818 822 834 830 824 832 832 842
789 790 790 791 791 791 791 793 793 793 794 801 806 806 807 806 806 802 814 811 816 818 830 845 844 842 847 843 837 818 833 829 834 836 827 812 815 822 827 828 830 837 844 844
788 790 792 793 793 793 793 795 796 797 802 804 804 805 809 809 810 810 811 816 811 816 819 831 841 848 837 850 837 825 818 814 826 830 818 816 818 822 831 836 838 843 844 843
789 792 793 794 794 794 795 796 797 799 803 812 806 808 809 811 811 812 812 812 817 819 824 839 842 842 822 828 823 821 819 815 818 819 814 818 830 835 840 842 844 844 842 840
789 792 794 795 796 796 797 798 799 800 801 809 807 810 812 812 812 813 814 815 817 823 834 839 837 825 828 830 831 823 815 814 819 822 825 829 836 840 844 844 841 839 838 836
790 793 795 797 798 798 799 798 803 802 802 807 812 812 813 813 813 814 814 815 818 821 826 833 822 817 825 840 829 812 810 810 819 816 830 834 839 844 844 840 838 837 836 835
790 793 796 798 799 800 799 798 803 802 804 808 815 811 815 817 815 816 817 822 823 822 822 827 823 822 824 828 822 809 815 820 825 830 832 841 842 839 839 837 836 835 835 832
790 793 796 798 800 801 802 802 803 804 806 809 820 815 818 818 819 823 824 824 827 825 821 831 825 821 826 823 811 810 817 826 830 830 831 830 834 835 833 834 834 833 832 832
789 793 795 798 799 801 802 803 805 806 809 812 818 816 817 817 821 825 827 825 826 831 830 829 827 825 817 808 808 816 822 826 831 831 829 829 832 832 832 832 832 832 831 831
787 792 794 798 797 799 803 807 808 809 809 812 810 807 811 811 823 824 827 828 823 823 827 829 829 819 817 814 814 817 821 827 828 828 830 830 832 832 834 834 834 834 832 830
780 786 793 796 797 799 804 808 807 813 811 811 806 804 807 817 815 819 825 825 828 820 819 820 813 803 804 813 817 821 823 826 828 829 830 831 833 833 832 830 830 831 831 828
780 783 790 796 798 802 800 802 810 805 796 807 808 811 812 819 819 823 829 822 827 813 816 823 811 795 805 812 817 821 825 826 827 830 831 831 831 831 831 832 829 826 826 824
781 787 795 798 802 793 790 787 788 793 799 803 808 812 814 818 820 823 822 816 814 820 824 808 791 803 809 812 817 822 824 828 831 830 830 830 829 830 831 829 827 824 821 819
791 792 791 791 789 789 788 784 786 798 799 801 807 812 813 817 818 819 810 821 818 816 813 804 800 806 809 813 817 821 823 828 830 830 829 828 828 826 825 824 822 819 815 813
795 794 790 794 801 801 803 801 800 803 803 802 806 810 810 814 816 815 818 819 811 803 795 800 803 810 813 816 822 823 826 828 828 826 825 825 824 823 820 818 816 815 812 808
800 800 798 803 800 802 803 804 805 806 806 806 807 810 810 812 812 815 810 807 800 797 804 805 809 814 818 821 823 826 826 826 825 823 822 821 820 818 815 813 811 808 806 803
799 803 803 803 802 803 807 807 809 811 811 809 812 811 814 823 815 814 808 806 807 807 808 810 814 818 820 822 823 824 823 823 822 820 819 817 816 814 811 809 805 802 799 797